Simultaneous Nadir Overpasses (SNOs) Predictions

Prediction of SNOs between METOP-C and LANDSAT-8 Satellite Orbit:

Table of predicted SNOs for the next 14.0 days since TLE Epoch: 9/11/2020
Index Date (METOP-C) Time (METOP-C) Lat,Lon (METOP-C) SZA (METOP-C ) Date (LANDSAT-8) Time (LANDSAT-8) Lat,Lon (LANDSAT-8) SZA (LANDSAT-8 ) Distance(km) Time Diff (sec)
1 09/13/2020 14:56:23 -81.15, 176.18 100.11 09/13/2020 14:56:37 -81.15, 176.27 100.10 1.59 14
2 09/13/2020 15:47:01 81.18, -15.49 80.03 09/13/2020 15:46:02 81.17, -15.67 79.98 3.01 59
3 09/16/2020 10:30:42 -81.16,-117.10 98.97 09/16/2020 10:30:52 -81.15,-117.21 98.98 1.98 10
4 09/16/2020 11:21:21 81.17, 50.78 81.12 09/16/2020 11:20:17 81.18, 50.83 81.10 0.80 64
5 09/19/2020 06:05:03 -81.15, -50.76 97.87 09/19/2020 06:05:08 -81.16, -50.72 97.86 0.70 5
6 09/19/2020 06:55:41 81.18, 117.43 82.26 09/19/2020 06:54:33 81.18, 117.29 82.21 2.41 68
7 09/22/2020 00:48:54 80.98,-156.02 82.67 09/22/2020 00:50:08 80.88,-155.88 82.63 11.87 74
8 09/22/2020 01:39:24 -81.15, 15.57 96.77 09/22/2020 01:39:24 -81.16, 15.74 96.75 3.00 0
9 09/22/2020 02:30:02 81.18,-176.31 83.35 09/22/2020 02:28:49 81.18,-176.27 83.33 0.64 73
10 09/24/2020 20:23:04 81.13, -86.05 84.25 09/24/2020 20:24:13 81.13, -85.90 84.30 2.47 69
